Temp
85 86 85 86 86 89 89 88 89 89 88 89 90 90 91 91 90 90 92 82 81 81 82 83 83 82 82 81 81 81 81 81 81 81 81 80 80 80 80 80 79 77 79
86 86 86 88 89 89 90 89 89 89 89 91 90 90 90 91 91 89 91 88 81 81 82 83 82 82 82 81 81 80 81 81 81 80 80 79 79 79 80 79 80 77 78
85 83 86 87 89 89 89 89 88 89 91 91 88 89 89 90 92 88 88 84 88 81 81 82 82 81 81 81 80 80 80 78 77 77 79 78 79 79 80 79 78 77 77
86 86 88 90 91 91 91 91 91 91 89 90 88 89 89 88 88 87 83 85 83 81 79 81 80 80 80 80 80 80 79 78 77 76 77 78 78 79 77 77 79 78 76
89 88 90 90 89 91 89 89 90 86 87 88 89 88 86 86 84 83 81 80 79 78 79 80 80 79 80 81 80 79 78 77 77 77 77 77 77 78 77 75 77 75 75
90 89 90 88 89 91 89 89 85 86 87 86 89 86 84 85 84 74 76 73 72 74 76 80 81 83 80 81 80 79 78 77 77 76 76 76 76 76 77 76 76 76 76
90 88 91 88 88 87 86 87 86 81 87 86 84 84 85 84 80 75 73 71 71 71 73 73 75 82 80 79 79 78 78 77 77 76 76 75 75 75 75 76 75 76 75
90 89 88 88 86 88 85 86 83 84 86 83 79 80 81 84 82 79 74 73 70 73 70 70 75 77 78 75 75 78 78 78 76 76 75 75 74 74 75 75 75 75 75
90 89 88 87 86 86 89 85 84 81 84 82 79 77 77 78 79 80 74 68 71 72 71 74 77 76 75 71 74 76 77 77 75 75 75 74 74 74 74 74 75 75 75
89 89 88 87 87 89 86 87 86 82 82 82 78 74 74 73 68 70 71 67 70 72 71 72 74 72 70 73 71 74 74 74 75 75 75 74 73 73 74 74 74 75 74
87 89 89 88 87 88 87 85 84 83 80 79 75 73 71 70 69 66 63 65 66 69 71 70 68 68 71 70 73 77 72 74 73 72 74 75 74 74 74 74 74 75 74
91 88 89 88 87 87 86 86 84 84 81 80 78 70 68 66 66 65 64 64 64 71 74 68 68 69 74 74 77 74 74 73 72 72 71 72 73 74 74 75 75 75 74
90 89 87 86 89 88 87 85 84 82 82 81 80 69 68 68 67 67 66 64 63 67 66 66 69 73 75 75 76 73 72 70 70 70 71 71 71 71 71 73 75 76 76
89 87 87 87 87 87 87 86 86 84 82 82 80 70 70 69 68 67 66 65 62 62 64 65 68 74 75 72 70 70 67 69 69 69 68 68 69 69 69 71 72 73 75
88 86 86 86 86 87 86 85 87 84 80 81 77 73 75 69 71 68 68 67 64 60 61 63 70 74 74 69 68 67 65 69 69 68 67 67 67 68 68 69 70 71 72
84 84 85 86 85 86 86 84 85 85 82 83 79 79 78 71 70 70 69 69 67 63 60 66 71 70 70 69 70 66 66 69 68 67 67 66 67 67 68 69 70 70 71
82 83 82 81 84 84 84 83 83 83 82 82 81 81 80 76 71 71 70 69 64 64 62 66 72 68 66 71 69 64 66 67 71 67 66 66 66 66 66 67 67 68 70
85 84 84 83 83 84 84 83 82 83 82 82 82 82 80 77 73 71 70 68 64 64 71 68 67 64 64 70 71 68 73 75 73 67 66 66 65 65 65 64 64 63 63
84 86 84 83 84 84 83 83 82 82 82 82 82 82 81 78 74 73 71 67 64 64 70 74 66 66 65 71 71 72 71 72 75 68 66 65 65 65 64 64 63 61 59
82 81 84 83 82 82 82 82 82 82 81 82 82 82 82 79 75 73 71 67 64 65 72 74 71 66 67 69 72 69 67 73 71 70 67 68 66 65 65 64 64 63 61
83 82 82 82 82 83 82 73 76 75 76 80 81 82 80 75 72 74 71 66 69 65 74 73 71 71 68 68 67 70 71 68 68 67 68 69 70 71 71 65 67 65 62
79 79 81 80 76 75 61 62 69 78 80 78 75 77 75 73 71 67 68 68 69 69 70 74 72 71 69 71 70 70 62 63 62 68 66 68 70 68 70 72 66 64 62
80 78 75 72 67 65 60 61 65 80 74 72 71 72 73 72 71 71 66 65 65 66 69 72 70 71 69 71 67 60 61 62 62 66 67 66 71 71 72 71 63 62 61
78 74 71 68 66 65 58 59 64 78 77 76 74 73 71 70 68 74 69 66 65 71 66 78 74 73 74 73 71 68 65 61 62 61 65 62 64 65 72 74 62 61 60
73 72 70 70 67 64 56 57 68 77 75 76 75 72 71 67 61 64 68 64 65 68 62 61 63 64 64 65 71 74 69 61 59 61 63 63 62 63 66 65 72 61 59
74 76 72 71 62 66 55 54 63 76 70 71 73 72 61 66 59 61 67 66 67 61 67 71 70 65 66 66 63 74 75 70 64 62 64 64 62 62 59 64 68 72 71
MSLP
1016.10 1016.05 1016.04 1015.99 1015.91 1015.63 1015.46 1015.44 1015.24 1015.07 1015.24 1015.18 1015.10 1015.04 1014.91 1014.83 1014.91 1014.98 1014.87 1015.44 1015.70 1015.80 1015.89 1016.01 1016.53 1016.54 1016.72 1017.17 1017.37 1017.28 1017.36 1017.56 1017.96 1018.36 1018.63 1019.02 1019.45 1019.67 1020.05 1020.45 1021.09 1021.71 1021.78
1015.99 1015.94 1015.82 1015.61 1015.53 1015.50 1015.29 1015.14 1014.98 1015.13 1015.05 1014.76 1014.81 1014.86 1014.52 1014.35 1014.34 1014.37 1014.37 1014.74 1015.09 1015.42 1015.74 1015.66 1016.08 1016.31 1016.64 1016.75 1017.12 1017.27 1017.20 1017.29 1017.50 1018.33 1018.49 1018.72 1019.04 1019.41 1019.79 1020.30 1020.85 1021.60 1021.91
1015.84 1016.00 1015.75 1015.67 1015.40 1015.39 1015.09 1014.94 1015.08 1014.93 1014.83 1014.67 1014.77 1014.50 1014.19 1013.88 1013.67 1014.06 1014.18 1014.44 1014.53 1014.79 1015.26 1015.17 1015.60 1016.13 1016.51 1016.84 1016.96 1017.18 1017.24 1017.45 1017.50 1017.71 1018.30 1018.55 1018.61 1018.87 1019.20 1019.72 1020.37 1020.92 1021.61
1015.68 1015.68 1015.58 1015.36 1015.27 1015.01 1014.65 1014.67 1014.90 1014.73 1014.74 1014.63 1014.69 1014.44 1014.13 1013.83 1013.71 1013.78 1014.07 1014.12 1014.26 1014.65 1015.24 1015.49 1015.49 1015.89 1016.33 1016.66 1016.88 1017.13 1017.38 1017.56 1017.89 1017.86 1018.12 1018.23 1018.47 1018.53 1018.84 1019.39 1019.99 1020.53 1020.85
1015.28 1015.37 1015.29 1015.30 1015.24 1014.89 1014.91 1015.01 1015.05 1015.07 1014.87 1014.79 1014.61 1014.57 1014.42 1014.26 1014.30 1014.28 1014.47 1014.70 1014.99 1015.02 1015.27 1015.46 1015.59 1015.96 1016.29 1016.57 1016.96 1017.10 1017.39 1017.72 1017.86 1018.01 1018.17 1018.26 1018.46 1018.41 1018.61 1019.18 1019.87 1020.26 1020.43
1015.00 1015.14 1015.14 1015.23 1015.17 1015.02 1015.13 1015.12 1014.96 1014.92 1014.95 1014.88 1014.44 1014.48 1014.56 1014.67 1014.70 1015.10 1015.39 1015.47 1015.45 1015.88 1015.79 1015.51 1015.70 1015.84 1016.06 1016.34 1016.72 1017.19 1017.51 1017.84 1018.07 1018.17 1018.20 1018.25 1018.45 1018.33 1018.41 1018.80 1019.36 1019.71 1020.19
1014.91 1015.02 1015.00 1015.14 1015.17 1015.18 1015.12 1015.19 1015.00 1015.14 1014.85 1014.88 1014.67 1014.46 1014.50 1014.58 1015.01 1015.45 1015.67 1015.73 1015.97 1016.24 1016.26 1015.99 1015.81 1015.78 1016.13 1016.16 1016.59 1017.11 1017.21 1017.63 1017.98 1018.10 1018.25 1018.41 1018.55 1018.58 1018.50 1018.57 1019.13 1019.75 1020.29
1014.76 1014.87 1014.95 1015.07 1015.18 1015.09 1015.10 1015.02 1015.09 1015.08 1014.99 1015.13 1015.20 1014.82 1014.16 1014.29 1014.96 1015.58 1016.00 1016.22 1015.97 1016.29 1016.50 1016.48 1016.42 1016.38 1016.12 1016.19 1016.21 1016.68 1017.10 1017.62 1018.02 1018.29 1018.33 1018.33 1018.59 1018.71 1018.75 1018.70 1018.80 1019.53 1020.07
1014.61 1014.72 1014.84 1014.98 1015.02 1015.04 1014.68 1014.78 1014.90 1014.89 1014.77 1015.10 1015.43 1015.54 1015.14 1014.77 1015.17 1015.70 1016.27 1016.38 1016.31 1016.15 1016.14 1016.18 1016.05 1016.00 1016.26 1016.64 1016.49 1016.59 1016.91 1017.31 1017.93 1018.23 1018.38 1018.34 1018.56 1018.80 1018.87 1018.78 1018.67 1019.04 1019.77
1014.38 1014.38 1014.47 1014.54 1014.63 1014.60 1014.64 1014.57 1014.49 1014.71 1014.87 1014.81 1015.45 1016.02 1016.65 1016.87 1016.71 1016.12 1016.24 1016.49 1016.20 1016.04 1016.04 1015.97 1015.72 1016.01 1016.29 1016.32 1016.54 1016.43 1016.60 1017.06 1017.66 1018.13 1018.22 1018.44 1018.45 1018.58 1018.94 1018.86 1018.78 1018.79 1019.26
1014.24 1014.20 1014.20 1014.22 1014.40 1014.45 1014.37 1014.28 1014.30 1014.45 1014.70 1014.94 1015.33 1015.81 1016.38 1016.47 1017.16 1017.29 1016.57 1016.28 1015.92 1015.97 1016.12 1015.99 1016.03 1016.14 1016.18 1016.42 1016.09 1016.16 1016.46 1016.90 1017.52 1017.96 1018.16 1018.33 1018.55 1018.66 1018.84 1018.93 1018.77 1018.87 1019.02
1014.17 1014.10 1014.06 1014.11 1014.07 1014.20 1014.06 1013.87 1013.95 1013.88 1014.16 1014.38 1014.62 1015.23 1015.48 1015.87 1016.41 1016.80 1016.19 1015.99 1015.79 1015.26 1015.43 1015.85 1015.98 1015.93 1015.97 1016.15 1016.12 1016.29 1016.33 1016.87 1017.51 1017.85 1018.15 1018.49 1018.76 1018.83 1018.86 1018.67 1018.78 1018.94 1019.28
1013.95 1014.11 1014.24 1014.14 1013.86 1013.63 1013.53 1013.51 1013.59 1013.66 1013.73 1013.76 1013.63 1014.23 1014.00 1013.97 1014.51 1014.67 1015.40 1015.25 1015.14 1015.15 1015.67 1015.97 1016.01 1015.92 1015.92 1016.04 1016.15 1016.62 1016.93 1017.36 1017.73 1018.30 1018.32 1018.68 1018.82 1018.99 1018.93 1018.91 1018.90 1018.97 1019.06
1013.99 1014.06 1013.99 1013.85 1013.58 1013.27 1013.20 1013.28 1013.31 1013.28 1013.25 1013.25 1013.09 1013.58 1013.66 1013.72 1013.79 1013.55 1014.00 1014.59 1014.23 1014.59 1015.43 1015.43 1015.93 1015.61 1015.76 1016.45 1016.74 1017.00 1017.35 1017.60 1018.16 1018.58 1018.63 1019.09 1018.98 1019.18 1019.10 1019.06 1019.07 1019.15 1019.13
1013.95 1013.95 1013.84 1013.67 1013.48 1013.31 1013.10 1012.98 1012.82 1012.75 1012.87 1012.77 1012.51 1012.70 1012.92 1013.10 1012.97 1013.16 1013.55 1013.82 1013.69 1013.81 1014.85 1015.53 1015.12 1015.46 1015.94 1016.71 1016.82 1017.24 1017.60 1018.01 1018.47 1018.86 1019.04 1019.36 1019.27 1019.30 1019.17 1019.15 1019.10 1019.25 1019.18
1013.67 1013.67 1013.63 1013.42 1013.29 1013.04 1012.87 1012.83 1012.56 1012.36 1012.48 1012.21 1012.19 1012.04 1011.98 1012.31 1012.41 1012.76 1013.07 1013.14 1012.98 1013.13 1014.58 1015.15 1015.05 1015.63 1016.21 1016.83 1017.19 1017.50 1017.69 1018.20 1018.51 1018.94 1019.24 1019.52 1019.49 1019.25 1019.09 1019.09 1019.07 1019.19 1019.19
1013.34 1013.36 1013.32 1013.30 1013.01 1012.81 1012.67 1012.56 1012.44 1012.17 1011.89 1011.65 1011.28 1011.23 1010.97 1011.40 1011.80 1012.12 1012.51 1012.69 1013.10 1013.50 1014.22 1014.89 1015.24 1015.95 1016.43 1016.49 1017.12 1017.71 1017.82 1018.23 1018.37 1018.98 1019.29 1019.56 1019.56 1019.44 1019.14 1019.26 1019.37 1019.24 1019.07
1012.76 1012.89 1012.92 1012.84 1012.68 1012.46 1012.35 1012.22 1012.05 1011.80 1011.54 1011.25 1010.87 1010.62 1010.58 1010.87 1011.22 1011.45 1011.97 1012.68 1013.25 1013.31 1013.43 1014.08 1015.16 1016.06 1016.42 1016.67 1016.93 1017.46 1017.37 1017.65 1017.98 1018.89 1019.16 1019.30 1019.46 1019.58 1019.53 1019.61 1019.75 1019.72 1019.51
1012.25 1012.37 1012.48 1012.51 1012.37 1012.29 1012.20 1012.09 1011.95 1011.58 1011.36 1010.98 1010.66 1010.36 1010.13 1010.23 1010.60 1011.04 1011.62 1011.93 1012.94 1013.55 1013.44 1013.64 1014.87 1015.73 1016.34 1016.58 1016.88 1017.14 1017.52 1017.71 1017.94 1018.82 1019.12 1019.41 1019.51 1019.70 1019.76 1019.88 1020.02 1020.05 1019.94
1011.76 1012.09 1012.26 1012.37 1012.29 1012.23 1012.14 1011.91 1011.69 1011.45 1011.11 1010.72 1010.51 1010.34 1010.04 1009.84 1010.23 1010.73 1011.33 1012.15 1012.82 1013.40 1013.40 1013.48 1014.40 1015.28 1016.02 1016.58 1016.66 1017.00 1017.62 1017.71 1018.01 1018.68 1019.13 1019.07 1019.36 1019.72 1019.73 1019.97 1020.22 1020.23 1020.38
1011.44 1011.89 1012.16 1012.31 1012.31 1012.14 1012.10 1012.29 1011.82 1011.49 1011.15 1010.73 1010.43 1010.19 1010.09 1010.16 1010.20 1010.48 1011.14 1012.02 1012.48 1013.04 1012.99 1013.23 1014.01 1014.55 1015.43 1016.01 1016.54 1016.78 1017.15 1017.84 1018.50 1018.80 1018.83 1019.17 1019.27 1019.41 1019.49 1020.14 1020.14 1020.39 1020.72
1011.62 1011.86 1012.12 1012.29 1012.59 1012.71 1012.87 1012.49 1012.09 1011.42 1011.02 1010.80 1010.67 1010.44 1010.50 1010.46 1010.55 1010.80 1011.18 1011.73 1012.20 1012.52 1012.89 1012.97 1013.63 1013.93 1014.68 1015.37 1016.34 1016.65 1017.62 1017.90 1018.20 1018.71 1018.90 1018.98 1019.23 1019.57 1019.48 1019.63 1020.07 1020.48 1020.78
1011.36 1011.93 1012.43 1012.81 1013.27 1013.27 1013.01 1012.53 1011.88 1011.28 1011.40 1011.36 1011.18 1010.98 1010.85 1010.98 1010.91 1011.18 1011.78 1012.34 1012.77 1012.96 1012.95 1013.11 1013.57 1013.86 1014.39 1014.89 1016.08 1016.91 1017.44 1017.77 1018.20 1018.56 1018.67 1018.50 1018.88 1018.84 1019.32 1019.64 1020.33 1020.64 1020.83
1011.47 1012.11 1012.63 1013.16 1013.32 1013.45 1013.15 1012.53 1011.92 1011.48 1011.30 1011.25 1011.24 1011.36 1011.37 1011.38 1011.52 1011.49 1012.15 1012.77 1013.25 1013.28 1013.67 1013.29 1013.72 1014.07 1014.33 1014.84 1015.54 1016.52 1017.10 1017.83 1018.39 1018.76 1018.81 1018.69 1019.21 1019.15 1019.05 1019.18 1020.20 1020.55 1020.78
1011.82 1012.26 1012.77 1013.01 1013.25 1013.63 1013.38 1012.87 1012.26 1011.88 1011.79 1011.44 1011.47 1011.62 1011.70 1011.86 1012.14 1012.18 1012.60 1013.02 1013.40 1013.74 1013.99 1014.17 1014.21 1014.49 1014.89 1015.02 1015.17 1015.99 1016.83 1017.57 1018.03 1018.44 1018.77 1018.73 1019.11 1019.13 1019.26 1019.51 1019.41 1020.48 1020.88
1011.86 1012.32 1012.88 1013.19 1013.71 1013.74 1013.70 1013.22 1012.81 1012.37 1012.25 1011.99 1011.77 1011.95 1012.25 1012.32 1012.38 1012.51 1012.78 1013.14 1013.45 1013.93 1013.91 1014.09 1014.69 1015.22 1015.37 1015.60 1015.78 1015.54 1015.92 1016.36 1017.12 1017.71 1018.24 1018.51 1018.80 1019.06 1019.34 1019.63 1019.62 1019.73 1020.33
Wind_Speed
2 3 3 3 4 3 4 4 4 4 4 6 7 8 9 9 9 6 5 9 11 11 10 10 9 9 7 7 9 9 12 13 13 13 13 14 15 16 16 16 15 13 12
2 3 3 3 3 3 3 4 3 3 4 5 4 5 8 8 9 9 7 6 12 11 11 11 11 7 7 7 5 7 8 9 11 10 11 11 12 15 16 16 15 18 19
3 3 3 4 3 2 1 1 1 1 2 3 4 6 7 9 8 8 7 5 5 12 12 12 10 7 5 4 4 2 0 3 3 4 5 8 10 12 13 17 20 17 13
4 2 4 3 2 2 3 3 2 3 3 3 5 6 7 7 7 6 5 5 3 3 7 9 9 8 6 6 4 4 3 5 7 8 7 4 9 12 15 13 15 15 17
5 3 2 3 4 3 4 3 2 3 4 4 4 4 4 4 4 3 3 1 2 2 2 7 8 7 7 6 4 3 7 9 9 9 7 7 5 10 17 18 15 13 16
4 3 3 3 4 2 2 2 3 2 3 4 4 4 4 3 4 3 4 5 4 4 0 2 5 6 9 8 7 5 6 8 9 9 7 6 4 4 14 15 19 18 20
4 4 2 3 4 4 4 2 3 3 3 5 4 3 1 4 5 4 3 3 2 1 3 2 2 4 4 7 8 8 8 9 10 10 8 7 7 5 3 13 17 18 16
3 3 3 3 4 5 5 2 2 2 2 3 3 3 4 2 4 6 5 3 2 3 2 6 5 4 5 4 7 12 9 9 11 10 8 8 7 6 6 4 12 17 18
3 5 5 5 5 6 5 3 3 2 5 1 2 3 4 6 4 3 4 1 3 1 5 7 6 4 5 2 3 8 12 10 11 12 9 8 7 5 6 5 4 14 16
5 6 6 6 6 5 6 5 3 3 1 6 1 2 6 5 4 4 1 2 3 4 5 3 5 3 5 5 4 7 11 11 12 13 11 9 7 5 3 4 4 13 18
4 5 5 5 7 6 8 9 6 5 2 3 3 3 2 3 1 2 6 2 3 4 4 3 1 1 4 4 4 5 12 12 12 13 12 12 9 7 5 5 4 13 19
3 4 5 4 5 6 7 8 8 8 6 5 1 5 5 5 3 6 5 5 4 4 4 3 2 2 3 5 5 8 11 15 14 13 8 9 7 6 4 4 5 13 19
4 2 3 5 6 7 7 8 8 8 7 5 6 6 5 6 7 9 8 6 5 2 2 2 3 3 4 4 6 9 14 14 12 9 9 9 7 5 2 2 5 7 18
5 4 6 7 9 8 7 6 6 7 7 6 8 6 6 5 8 11 7 7 3 4 1 3 4 5 4 5 5 12 8 14 11 10 8 9 6 4 1 4 5 2 7
6 7 7 8 8 7 7 7 7 8 3 7 7 8 9 6 8 4 6 7 6 3 2 2 4 5 7 5 6 5 7 14 12 11 9 7 5 4 1 4 5 3 2
7 7 8 7 8 9 9 8 7 8 8 8 7 9 9 6 7 6 6 7 7 3 4 2 2 6 7 6 7 6 8 12 12 11 10 6 4 2 3 2 4 5 4
6 7 7 8 10 10 10 9 8 9 10 9 9 8 10 9 5 5 5 4 4 3 4 3 3 8 6 9 8 4 5 6 7 9 9 8 4 4 8 8 8 5 3
7 7 8 8 9 9 9 9 9 9 10 11 11 10 9 5 9 6 5 3 4 4 3 8 7 3 5 8 9 9 7 6 7 9 8 7 6 6 8 7 9 9 8
8 7 7 8 8 8 8 8 9 11 10 11 12 11 10 7 9 5 5 6 6 3 4 6 7 6 4 8 9 6 6 6 5 9 7 6 6 6 5 6 7 7 8
7 5 6 6 6 7 8 8 10 10 10 10 10 9 9 7 7 7 5 7 7 6 5 7 8 8 8 8 6 7 6 4 5 4 3 5 6 7 5 5 5 5 6
5 4 3 4 5 6 6 9 8 7 7 9 9 9 7 7 2 7 6 9 11 6 6 8 7 9 8 10 8 6 6 6 5 1 4 5 5 5 5 4 3 2 3
5 3 0 4 7 5 11 10 6 5 7 9 10 9 7 6 3 7 9 11 11 11 7 6 7 9 10 10 7 8 5 4 3 4 5 5 4 4 4 3 2 1 3
6 5 5 7 6 6 13 10 4 5 6 7 8 8 6 5 4 7 11 13 6 6 3 8 9 9 11 10 10 4 4 2 3 3 5 4 5 4 4 5 7 5 5
7 6 7 7 6 6 12 10 7 6 6 7 8 7 6 6 5 8 9 9 6 5 3 3 6 7 7 11 11 7 6 4 4 2 3 3 2 4 4 5 9 7 4
8 7 7 7 7 8 13 12 8 6 7 7 7 8 6 7 6 8 9 8 6 5 3 7 7 8 6 8 9 8 6 5 2 3 5 2 3 2 3 3 5 7 5
8 7 7 8 7 8 11 13 10 4 6 6 6 7 9 7 8 8 7 7 7 3 6 7 8 8 8 6 9 6 6 7 3 4 6 5 4 4 3 2 4 7 7
Wind_Direction
282 281 288 270 282 276 263 262 258 259 257 248 246 253 260 254 246 242 245 218 222 219 205 187 205 193 214 240 250 250 243 239 222 215 217 218 214 207 209 202 184 213 216
276 301 283 281 271 268 292 270 265 288 275 256 259 281 276 260 247 237 237 223 223 220 197 182 191 189 207 212 229 266 268 226 212 224 221 216 217 211 209 206 200 182 202
241 282 333 307 293 241 281 74 203 258 247 250 285 293 283 275 267 251 239 233 231 210 202 178 169 180 189 207 224 220 229 95 114 206 196 200 198 208 196 198 197 190 200
239 288 315 323 329 284 1 350 355 297 297 299 332 318 309 303 302 271 244 248 210 184 189 180 158 166 189 212 213 201 138 109 112 104 109 145 193 191 183 181 193 185 188
241 255 301 321 322 354 1 332 343 326 305 310 313 341 342 343 337 334 299 317 74 25 142 168 169 181 200 207 211 111 109 110 114 119 126 127 152 189 186 185 181 173 168
266 247 265 285 292 309 298 344 303 302 298 344 325 10 23 39 36 32 38 34 48 60 239 216 195 200 208 204 170 150 133 130 127 123 123 113 107 110 195 191 180 179 183
236 211 272 278 290 282 300 302 303 348 3 360 330 306 151 93 82 67 67 91 127 90 296 283 231 209 205 194 163 170 162 150 133 126 124 115 107 98 89 202 183 183 177
207 228 259 268 272 269 264 296 331 333 333 25 337 285 329 176 93 63 61 101 136 237 278 253 240 228 221 219 169 188 172 163 139 135 134 114 95 98 88 98 201 188 176
235 231 243 254 256 266 302 305 293 284 327 56 15 344 317 340 334 63 63 45 312 297 246 268 261 244 223 257 251 201 191 177 167 151 154 129 111 92 95 94 145 183 179
260 242 239 243 262 282 283 284 271 277 307 322 357 73 54 30 344 322 127 312 284 273 273 251 270 226 193 211 220 231 210 189 179 162 162 150 136 115 124 115 124 166 172
303 249 250 270 275 273 273 268 271 272 206 250 201 113 144 104 52 284 287 272 240 243 245 245 216 200 185 182 196 219 215 168 163 171 172 153 155 167 157 152 146 163 170
293 255 260 265 291 295 278 269 259 251 247 233 226 155 166 174 204 252 247 252 261 246 211 190 187 158 138 183 136 131 151 151 152 161 160 132 145 161 156 159 171 166 168
264 275 293 281 292 288 278 265 256 256 259 249 226 193 192 185 174 225 235 234 237 215 133 228 196 158 188 134 139 128 115 125 131 137 138 121 127 127 159 199 205 185 185
276 284 286 287 285 284 277 269 264 269 268 258 255 217 219 196 198 216 212 225 190 196 165 146 165 184 141 97 121 120 130 139 140 125 124 120 129 127 199 246 237 220 190
267 265 276 281 272 278 277 274 269 277 271 270 252 221 237 214 216 241 218 227 236 164 127 164 152 160 124 130 118 129 138 136 134 126 124 125 146 148 134 279 233 214 164
248 264 268 268 265 270 277 280 279 278 280 285 273 270 250 222 215 205 211 229 238 108 120 230 159 143 126 128 119 117 118 133 139 134 132 140 161 123 87 73 179 195 159
238 249 258 267 269 276 283 282 286 292 293 294 289 266 271 244 208 211 212 228 115 103 127 142 114 126 138 147 127 133 128 128 136 132 127 140 143 89 64 48 59 65 107
229 245 260 263 270 274 283 290 304 295 294 301 301 299 289 257 226 211 196 160 137 183 165 139 133 121 137 138 140 160 159 157 134 129 123 136 122 111 82 68 65 49 41
223 243 250 265 281 295 305 306 297 301 305 300 301 302 296 269 232 204 190 149 136 152 162 148 131 137 128 142 144 133 160 121 123 132 138 140 121 120 114 96 77 59 41
204 223 253 280 292 303 302 305 309 313 312 309 313 310 303 288 231 205 181 142 139 140 161 140 136 146 145 153 161 147 150 174 138 128 115 83 154 139 145 132 97 68 52
190 179 256 288 310 312 7 329 307 308 314 325 331 337 346 336 251 190 153 151 150 154 171 142 148 154 154 160 176 164 162 165 157 196 153 147 153 156 171 172 147 187 84
142 132 74 352 30 0 343 337 333 337 347 355 350 350 7 6 161 149 146 153 151 154 168 148 156 166 158 156 151 165 149 161 175 178 180 160 190 171 172 175 117 100 163
133 116 77 64 50 13 341 319 341 21 31 26 18 7 13 32 86 122 112 114 127 81 127 151 160 179 163 161 147 135 153 156 143 143 216 183 196 202 179 155 180 205 200
135 118 98 93 70 26 353 350 337 49 42 41 36 26 32 45 40 106 119 116 130 154 134 141 149 168 171 157 156 166 144 120 106 114 179 185 172 195 204 201 163 202 190
137 118 121 108 81 44 8 9 6 28 30 31 37 42 67 72 55 112 111 113 125 127 77 67 83 112 114 144 156 158 162 153 170 175 192 197 149 136 165 198 179 194 202
134 127 112 98 81 64 20 20 6 34 32 14 40 52 49 100 94 81 112 123 133 149 161 145 121 119 140 161 157 191 173 182 164 183 180 199 151 157 165 183 210 180 194